Regional Weather Roundup
Issued by NWS

Home | Current Version | Previous Version | Graphics & Text | Print | Product List | Glossary On
Versions: 1 2 3 4 5 6 7 8 9 10 11 12 13 14 15 16 17 18 19 20 21 22 23 24 25 26 27 28 29 30 31 32 33 34 35 36 37 38 39 40 41 42 43 44 45 46 47 48 49 50
000
ASUS43 KMKX 231411
RWRWI

WISCONSIN REGIONAL WEATHER ROUNDUP
NATIONAL WEATHER SERVICE MILWAUKEE/SULLIVAN WI
900 AM CDT WED AUG 23 2017

NOTE: "FAIR" INDICATES FEW OR NO CLOUDS BELOW 12,000 FEET WITH NO
SIGNIFICANT WEATHER AND/OR OBSTRUCTIONS TO VISIBILITY.

WIZ001-002-006>008-014>016-023>028-231500-
NORTHWEST WISCONSIN

CITY           SKY/WX    TMP DP  RH WIND       PRES   REMARKS
SUPERIOR ARPT    N/A     57  53  86 W6        30.09S
ASHLAND        CLOUDY    58  54  86 NW6       30.07R
HAYWARD        MOSUNNY   57  51  80 VRB5      30.09S
SIREN          SUNNY     58  52  80 N3        30.11R
CUMBERLAND     SUNNY     55  50  82 NW8       30.10S
RICE LAKE      SUNNY     58  53  83 NW5       30.11S
CHETEK         SUNNY     58  53  83 NW5       30.10S
LADYSMITH      SUNNY     58  54  84 NW7       30.10R
EAU CLAIRE     SUNNY     62  53  72 N8        30.08S
MENOMONIE      SUNNY     61  53  76 NW8       30.10S
NEW RICHMOND   SUNNY     60  54  79 N8        30.11S
OSCEOLA        SUNNY     58  57  97 NW6       30.14S
$$

WIZ003>005-009-010-017-018-231500-
NORTH CENTRAL WISCONSIN

CITY           SKY/WX    TMP DP  RH WIND       PRES   REMARKS
MANITOWISH WTR CLOUDY    55  55 100 NW8       30.05R
ARBOR VITAE    PTSUNNY   59  54  83 NW6       30.04S
WOODRUFF       PTSUNNY   59  54  83 NW6       30.04S
RHINELANDER    PTSUNNY   57  54  89 W9        30.05R
EAGLE RIVER    CLOUDY    55  50  82 NW7       30.03S
LAND O LAKES   CLOUDY    55  50  84 NW8       30.05S
PHILLIPS       CLOUDY    53  53  99 NW7       30.07R
TOMAHAWK         N/A     54  52  92 NW9       30.06S
MEDFORD        CLOUDY    56  52  86 NW7       30.07S
MERRILL        CLOUDY    54  54 100 N7        30.06S
$$

WIZ029-030-035-036-043>047-231500-
CENTRAL WISCONSIN

CITY           SKY/WX    TMP DP  RH WIND       PRES   REMARKS
WAUSAU         SUNNY     58  52  80 NW7       30.04S
MOSINEE        MOSUNNY   57  55  94 NW6       30.06S
MARSHFIELD     SUNNY     60  52  74 NW7       30.06R
STEVENS POINT  SUNNY     57  53  85 NW5       30.06R
WAUPACA        SUNNY     64  55  72 W8        30.04R
WAUTOMA        SUNNY     62  53  72 NW9       30.05S
WISC RAPIDS    SUNNY     62  54  74 NW8       30.07S
CAMP DOUGLAS   SUNNY     61  54  77 NW10      30.07R
$$

WIZ011>013-019>022-031-037>040-048>050-231500-
NORTHEAST WISCONSIN

CITY           SKY/WX    TMP DP  RH WIND       PRES   REMARKS
ANTIGO         CLOUDY    55  52  89 NW12G17   30.05R
SHAWANO        SUNNY     62  54  76 W7        30.02R
OCONTO         SUNNY     61  53  75 NW8       30.00S
STURGEON BAY   MOSUNNY   60  53  77 NW13      30.01R
GREEN BAY      SUNNY     63  56  78 N10       30.01R
MANITOWOC      SUNNY     62  52  69 NW12      30.02R
APPLETON       SUNNY     59  52  77 NW7       30.01R
CLINTONVILLE   SUNNY     59  50  72 N8        30.03R
OSHKOSH        SUNNY     60  53  77 NW9       30.02S
$$

WIZ032>034-041-042-053>061-231500-
SOUTHWEST WISCONSIN

CITY           SKY/WX    TMP DP  RH WIND       PRES   REMARKS
LA CROSSE      SUNNY     65  54  67 VRB6      30.09S
SPARTA         MOSUNNY   60  53  77 W7        30.09S
VIROQUA        SUNNY     59  54  83 NW6       30.10R
BOSCOBEL       SUNNY     62  53  72 VRB3      30.09S
PRAIRIE DU CHI SUNNY     61  49  65 CALM      30.09S
PLATTEVILLE    SUNNY     60  56  87 NW7       30.09S
$$

WIZ056-057-062-063-064-067-068-231500-
SOUTH CENTRAL WISCONSIN

CITY           SKY/WX    TMP DP  RH WIND       PRES   REMARKS
REEDSBURG      SUNNY     61  54  76 NW6       30.07S
BARABOO/DELLS  SUNNY     61  51  68 W9        30.07S
LONE ROCK      SUNNY     62  54  74 W7        30.08S
MINERAL POINT  SUNNY     63  55  77 NW6       30.09R
MADISON        SUNNY     63  54  72 NW7       30.06R
MIDDLETON      SUNNY     63  54  71 W7        30.07S
WATERTOWN      SUNNY     62  56  81 NW9       30.05R
MONROE         SUNNY     61  52  72 NW8       30.07S
JANESVILLE     SUNNY     63  54  72 NW8       30.05S
$$

WIZ051-052-058>065-066-070>072-231500-
SOUTHEAST WISCONSIN

CITY           SKY/WX    TMP DP  RH WIND       PRES   REMARKS
MILWAUKEE      SUNNY     66  52  60 NW10      30.03R
WAUKESHA       SUNNY     63  52  67 W9        30.05R
MILWAUKEE/TIMM SUNNY     64  48  55 NW12      30.03S
RACINE         SUNNY     65  54  67 NW8       30.04R
KENOSHA        SUNNY     65  53  65 NW8       30.03S
FOND DU LAC    SUNNY     62  52  69 NW7       30.03S
SHEBOYGAN      SUNNY     63  55  75 NW6       30.02R
WEST BEND      SUNNY     61  52  72 NW8       30.03S
JUNEAU         SUNNY     60  53  77 NW6       30.06R
$$

LSZ147-162-231500-
LAKE SUPERIOR

STATION/POSITION TIME  TEMP    WIND        PRES    WAVE
                       AIR SEA DIR/SP/G            HT/PER
                 (UTC) (F)     (DEG/KT/KT) (MB)    (FT/S)
W MID LAKE BUOY  1350   57 59  330/ 12/ 14 1017.1R   2/ 4
DEVILS ISLAND    1400   58      10/  9/ 10 1018.3R
PORT WING        1140   60     200/  1/  4 1017.6
SAXON HARBOR     1330   58     260/  4/  9 1017.3R
$$

LMZ867-665-643>646-231500-
LAKE MICHIGAN

STATION/POSITION TIME  TEMP    WIND        PRES    WAVE
                       AIR SEA DIR/SP/G            HT/PER
                 (UTC) (F)     (DEG/KT/KT) (MB)    (FT/S)
S GREEN BAY BUOY 1400   61 70  320/ 14/ 17 1015.7
N MID LAKE BUOY  1350   59 66  310/ 16/ 19 1014.8R   2/ 4
NORTHPORT PIER   1340   61     320/ 16/ 19 1014.9R
KEWAUNEE LAKESHO 1342   62     320/  5/  9 1014.7R
SHEBOYGAN LAKESH 1400   62     300/ 12/ 14 1016.1R
PORT WASHINGTON  1340   64     300/  5/ 11 1017.3R
ATWATER BUOY     1309   63 67  320/ 10/ 14 1016.5R
MILWAUKEE LAKESH 1350   64     310/  9/ 10   N/A
S MID LAKE BUOY  1350   65 71  340/ 16/ 17 1015.9R   4/ 5
KENOSHA   LAKESH 1400   63     330/ 12/ 16 1016.6
$$

TC  - TEMPERATURE IN CELSIUS
VSB - VISIBILITY IN STATUTE MILES
WCI - WIND CHILL INDEX
HX  - HEAT INDEX





USA.gov is the U.S. government's official web portal to all federal, state and local government web resources and services.